Location: Unspecified
(64.9000°N, 0.0000°E)
Time: 00:28:02
(UTC+00:00)

Transit 2A Rocket - Pass Details

Date: 26 June 2019
Orbit: 588 x 915 km, 66.7° (Epoch: 20 July)

Event Time Altitude Azimuth Distance (km) Brightness Sun altitude
Rises 16:15:41 0° 300° (WNW) 3,430 9.0 32.3°
Reaches altitude 10° 16:18:16 10° 297° (WNW) 2,447 8.4 32.0°
Maximum altitude 16:23:47 59° 219° (SW) 903 6.4 31.5°
Drops below altitude 10° 16:28:47 10° 142° (SE) 2,221 7.2 31.0°
Sets 16:31:03 0° 138° (SE) 3,089 7.9 30.7°
